Precipitable_Water
0.48 0.48 0.47 0.46 0.47 0.47 0.47 0.47 0.46 0.48 0.49 0.51 0.52 0.55 0.63 0.69 0.71 0.74 0.75 0.78 0.80 0.82 0.81 0.82 0.85 0.87 0.87 0.88 0.89 0.89 0.92 0.91 0.93 0.89 0.89 1.06 1.19 1.27 1.25 1.39 1.48 1.59 1.51 1.47 1.48 1.41 1.33 1.39 1.40 1.52 1.45 1.39 1.23 1.17 1.30 1.33 1.33 1.19 0.85 0.70 0.55 0.63 0.61 0.74 0.71 0.77 0.83 0.77 0.90 0.98 1.06 1.00 0.91 1.08 1.16 1.28 1.17 1.17 1.19 1.18 1.28 1.38 1.38 1.42 1.43 1.44 1.49 1.60
0.49 0.48 0.47 0.47 0.46 0.47 0.46 0.45 0.44 0.44 0.45 0.47 0.48 0.50 0.54 0.61 0.67 0.69 0.71 0.73 0.75 0.80 0.80 0.79 0.81 0.84 0.86 0.88 0.88 0.89 0.87 0.89 0.88 0.88 0.84 1.17 1.26 1.29 1.25 1.37 1.50 1.51 1.47 1.32 1.32 1.28 1.26 1.24 1.32 1.41 1.30 1.15 1.31 1.05 1.33 1.08 1.33 0.97 0.80 0.70 0.55 0.66 0.69 0.88 0.87 0.90 0.83 0.79 0.91 0.97 1.06 1.01 0.95 1.06 1.13 0.98 0.98 1.03 1.01 1.11 1.18 1.16 1.29 1.40 1.44 1.43 1.42 1.52
0.50 0.48 0.47 0.47 0.47 0.45 0.44 0.44 0.43 0.42 0.42 0.43 0.44 0.46 0.48 0.52 0.59 0.64 0.67 0.68 0.71 0.74 0.78 0.76 0.77 0.81 0.83 0.86 0.88 0.88 0.85 0.81 0.86 0.75 0.86 1.11 1.15 1.18 1.26 1.38 1.47 1.46 1.33 1.26 1.30 1.29 1.23 1.26 1.34 1.31 1.23 1.09 1.16 0.99 1.15 1.01 1.17 1.04 0.78 0.61 0.65 0.78 0.80 0.89 0.92 0.88 0.98 0.92 0.87 0.92 1.00 1.01 1.02 1.07 1.17 0.95 0.93 0.99 0.88 0.94 1.04 1.05 1.08 1.20 1.30 1.38 1.40 1.44
0.50 0.49 0.48 0.47 0.46 0.45 0.45 0.43 0.42 0.41 0.40 0.40 0.40 0.42 0.44 0.47 0.51 0.57 0.61 0.64 0.66 0.69 0.74 0.75 0.74 0.77 0.80 0.82 0.86 0.87 0.81 0.74 0.68 0.77 0.97 1.12 1.04 1.08 1.25 1.35 1.39 1.38 1.35 1.36 1.34 1.27 1.31 1.32 1.33 1.30 1.15 1.04 1.03 1.11 0.95 1.03 0.93 1.02 0.88 0.67 0.71 0.82 0.77 0.86 0.95 0.95 0.96 0.98 0.89 0.92 1.00 0.97 1.04 1.07 1.05 0.97 0.87 0.87 0.92 1.04 0.97 0.94 1.06 1.14 1.24 1.30 1.35 1.35
0.51 0.49 0.48 0.46 0.45 0.45 0.44 0.43 0.41 0.40 0.39 0.39 0.38 0.39 0.40 0.43 0.46 0.50 0.55 0.58 0.62 0.64 0.68 0.73 0.72 0.73 0.75 0.78 0.81 0.87 0.72 0.58 0.60 0.81 1.06 1.14 1.08 1.10 1.20 1.28 1.32 1.28 1.26 1.30 1.30 1.23 1.22 1.19 1.21 1.20 1.14 0.94 1.00 0.99 0.98 1.07 1.09 1.04 0.84 0.86 0.85 0.88 0.80 0.90 0.96 1.01 0.95 1.00 0.93 0.94 0.85 0.86 1.10 1.06 0.99 0.94 0.74 0.70 0.84 0.98 1.09 1.11 1.16 1.14 1.16 1.24 1.31 1.29
0.51 0.49 0.48 0.47 0.46 0.45 0.44 0.42 0.41 0.40 0.38 0.37 0.37 0.37 0.37 0.39 0.42 0.45 0.49 0.52 0.56 0.60 0.62 0.67 0.71 0.69 0.70 0.74 0.76 0.76 0.68 0.45 0.66 0.72 1.12 1.10 1.10 1.11 1.15 1.22 1.26 1.24 1.23 1.16 1.12 1.10 1.08 1.08 1.11 0.98 0.99 0.96 0.89 0.83 0.96 1.08 1.15 0.78 0.88 0.91 0.90 0.92 0.83 0.95 0.96 0.99 1.00 0.89 0.87 0.85 0.94 1.01 0.93 0.88 1.00 0.95 0.81 0.89 1.07 1.11 1.12 1.17 1.25 1.26 1.26 1.25 1.22 1.24
0.52 0.50 0.48 0.48 0.47 0.46 0.43 0.42 0.41 0.39 0.38 0.37 0.36 0.36 0.36 0.36 0.38 0.42 0.45 0.47 0.50 0.55 0.57 0.61 0.66 0.68 0.66 0.69 0.72 0.60 0.59 0.61 0.65 0.87 1.06 1.07 1.06 1.09 1.13 1.16 1.18 1.14 1.13 1.03 1.03 0.97 0.97 0.96 0.98 0.91 0.96 0.94 0.96 0.94 0.99 1.04 1.12 0.92 0.79 0.91 0.90 0.97 0.89 0.99 0.95 1.02 0.98 0.91 0.85 0.97 1.05 0.89 0.89 0.72 0.98 0.90 0.96 1.03 1.11 1.15 1.15 1.20 1.30 1.31 1.21 1.22 1.21 1.22
0.53 0.52 0.51 0.50 0.48 0.45 0.44 0.42 0.41 0.39 0.38 0.37 0.36 0.35 0.35 0.36 0.36 0.38 0.41 0.44 0.46 0.50 0.54 0.55 0.59 0.63 0.65 0.57 0.51 0.51 0.54 0.58 0.74 1.09 1.04 1.02 1.00 1.05 1.13 1.12 1.09 1.01 0.94 0.92 0.96 0.94 0.96 0.84 0.80 0.91 0.86 0.79 0.85 0.92 1.00 0.99 1.04 0.88 0.83 0.93 0.95 0.98 0.98 1.01 1.02 1.00 0.99 0.99 1.04 1.04 0.90 0.88 0.94 0.87 0.98 0.86 0.99 1.09 1.11 1.16 1.16 1.19 1.24 1.25 1.23 1.22 1.26 1.27
0.54 0.53 0.52 0.50 0.48 0.46 0.44 0.42 0.41 0.39 0.37 0.37 0.36 0.36 0.37 0.38 0.37 0.37 0.38 0.40 0.42 0.45 0.48 0.52 0.52 0.56 0.65 0.53 0.48 0.44 0.48 0.60 0.86 1.08 1.05 0.94 0.92 0.99 1.06 0.90 1.06 0.89 0.82 0.87 0.98 0.98 0.96 0.81 0.86 0.83 0.65 0.71 0.81 0.86 0.91 0.88 0.77 0.95 0.88 0.96 0.96 0.96 1.03 1.05 1.02 1.02 1.02 1.03 1.06 0.95 0.92 1.00 1.01 1.09 0.87 0.93 1.02 1.13 1.16 1.12 1.12 1.16 1.16 1.18 1.20 1.24 1.27 1.28
0.55 0.54 0.53 0.50 0.48 0.47 0.45 0.43 0.41 0.39 0.37 0.36 0.37 0.39 0.41 0.41 0.39 0.37 0.36 0.36 0.38 0.42 0.44 0.47 0.47 0.50 0.46 0.43 0.43 0.38 0.49 0.77 0.99 1.04 0.98 0.93 0.93 0.92 0.91 0.86 0.93 0.85 0.79 0.83 0.92 0.96 0.89 0.82 0.82 0.84 0.77 0.71 0.83 0.82 0.90 0.87 0.76 0.91 0.90 0.96 0.95 0.98 1.03 1.08 0.99 1.01 1.06 1.03 1.06 0.91 0.90 0.95 1.09 0.97 0.69 0.99 1.08 1.13 1.09 1.05 1.11 1.11 1.10 1.16 1.19 1.24 1.29 1.29
0.56 0.54 0.53 0.51 0.49 0.47 0.45 0.44 0.41 0.39 0.37 0.37 0.40 0.43 0.44 0.42 0.41 0.41 0.40 0.35 0.34 0.37 0.40 0.43 0.44 0.43 0.30 0.35 0.35 0.37 0.56 0.80 0.96 0.95 0.94 0.93 0.91 0.84 0.79 0.84 0.88 0.80 0.77 0.82 0.86 0.94 0.94 0.87 0.85 0.81 0.72 0.70 0.75 0.80 0.85 0.84 0.91 0.91 0.94 0.96 0.97 1.02 1.05 1.08 1.07 1.05 1.08 0.97 1.09 1.00 0.90 1.01 1.05 1.00 0.81 0.91 1.08 1.13 1.01 1.01 1.05 1.08 1.10 1.15 1.20 1.23 1.30 1.32
0.57 0.55 0.53 0.52 0.50 0.48 0.46 0.44 0.42 0.39 0.38 0.40 0.44 0.45 0.45 0.44 0.47 0.49 0.49 0.44 0.35 0.34 0.37 0.38 0.40 0.37 0.33 0.28 0.30 0.37 0.60 0.79 0.95 0.90 0.87 0.88 0.85 0.86 0.84 0.86 0.85 0.81 0.78 0.69 0.74 0.82 0.84 0.83 0.83 0.71 0.59 0.74 0.64 0.81 0.82 0.95 0.90 0.90 0.93 0.79 0.87 0.95 0.92 1.03 0.97 1.03 1.08 0.97 1.12 1.07 0.91 0.83 0.90 0.80 0.96 1.02 1.08 1.09 1.03 1.00 1.03 1.05 1.09 1.14 1.19 1.24 1.29 1.33
0.58 0.56 0.55 0.53 0.51 0.50 0.48 0.45 0.43 0.40 0.40 0.43 0.46 0.47 0.46 0.49 0.50 0.51 0.54 0.47 0.39 0.37 0.36 0.38 0.36 0.32 0.19 0.18 0.23 0.32 0.42 0.67 0.74 0.83 0.86 0.89 0.88 0.94 0.91 0.93 0.89 0.84 0.79 0.71 0.68 0.78 0.81 0.82 0.77 0.64 0.70 0.67 0.69 0.72 0.86 0.96 0.91 0.93 0.90 0.81 0.77 0.80 0.79 0.95 1.05 1.06 1.02 1.02 1.14 1.07 0.58 0.61 0.77 0.91 1.04 1.11 1.04 1.05 1.00 0.97 1.01 1.03 1.06 1.12 1.17 1.22 1.28 1.36
0.59 0.57 0.55 0.54 0.52 0.50 0.49 0.46 0.44 0.42 0.44 0.46 0.48 0.49 0.48 0.51 0.54 0.54 0.54 0.46 0.45 0.43 0.43 0.39 0.31 0.22 0.14 0.14 0.19 0.25 0.31 0.44 0.61 0.65 0.70 0.87 0.81 0.79 0.81 0.86 0.90 0.87 0.87 0.74 0.72 0.80 0.78 0.78 0.73 0.67 0.73 0.64 0.66 0.90 0.82 0.85 0.91 0.78 0.84 0.84 0.70 0.68 0.66 0.89 0.95 1.00 0.93 1.06 1.11 1.08 0.60 0.61 0.74 0.93 1.08 1.14 1.08 0.98 0.91 0.96 0.99 1.02 1.04 1.08 1.14 1.20 1.26 1.34
0.60 0.58 0.56 0.54 0.52 0.51 0.49 0.47 0.44 0.43 0.47 0.48 0.47 0.49 0.49 0.50 0.55 0.55 0.50 0.47 0.48 0.47 0.44 0.42 0.34 0.17 0.12 0.12 0.21 0.35 0.37 0.37 0.38 0.47 0.64 0.65 0.69 0.63 0.62 0.73 0.74 0.79 0.81 0.75 0.67 0.71 0.71 0.72 0.68 0.61 0.60 0.68 0.72 0.68 0.67 0.71 0.79 0.81 0.68 0.62 0.72 0.65 0.68 0.83 0.96 0.95 0.82 0.97 1.09 0.99 0.67 0.65 0.74 0.88 1.07 1.14 1.10 1.01 0.90 0.94 1.00 1.03 1.05 1.09 1.14 1.21 1.27 1.33
0.60 0.58 0.57 0.55 0.52 0.50 0.49 0.47 0.45 0.44 0.49 0.49 0.47 0.48 0.50 0.54 0.54 0.50 0.51 0.49 0.52 0.51 0.50 0.33 0.30 0.22 0.12 0.09 0.14 0.28 0.24 0.22 0.24 0.36 0.46 0.55 0.62 0.51 0.59 0.62 0.69 0.68 0.64 0.57 0.59 0.61 0.62 0.64 0.58 0.61 0.60 0.61 0.59 0.53 0.55 0.59 0.64 0.72 0.64 0.58 0.60 0.65 0.66 0.71 0.84 0.94 0.96 0.93 1.01 0.88 0.64 0.72 0.74 0.91 1.04 1.13 1.09 1.02 0.93 0.93 0.98 1.03 1.05 1.09 1.13 1.20 1.26 1.31
0.59 0.58 0.57 0.55 0.53 0.50 0.47 0.46 0.44 0.45 0.51 0.50 0.48 0.50 0.52 0.58 0.55 0.53 0.53 0.54 0.52 0.56 0.48 0.33 0.36 0.32 0.10 0.25 0.27 0.17 0.16 0.19 0.28 0.30 0.35 0.46 0.53 0.52 0.51 0.51 0.52 0.54 0.54 0.51 0.49 0.51 0.57 0.55 0.61 0.59 0.60 0.53 0.55 0.52 0.44 0.45 0.50 0.57 0.65 0.57 0.65 0.62 0.66 0.61 0.80 0.91 0.96 0.89 0.78 0.91 0.74 0.72 0.81 0.93 1.02 1.08 1.08 1.01 0.96 0.93 0.96 1.00 1.05 1.08 1.14 1.20 1.24 1.26
0.59 0.58 0.57 0.56 0.53 0.51 0.48 0.46 0.43 0.46 0.51 0.51 0.49 0.48 0.50 0.56 0.58 0.55 0.54 0.54 0.55 0.53 0.51 0.53 0.42 0.26 0.17 0.19 0.13 0.17 0.25 0.21 0.23 0.29 0.32 0.37 0.43 0.44 0.45 0.43 0.48 0.47 0.44 0.42 0.44 0.40 0.50 0.50 0.56 0.48 0.51 0.49 0.50 0.46 0.37 0.37 0.45 0.50 0.56 0.55 0.57 0.65 0.67 0.64 0.63 0.75 0.86 0.89 0.80 0.83 0.78 0.72 0.80 0.92 0.99 1.03 1.07 1.00 0.96 0.97 0.98 1.00 1.06 1.10 1.15 1.17 1.18 1.19
0.59 0.58 0.57 0.55 0.54 0.51 0.48 0.46 0.44 0.48 0.50 0.50 0.49 0.53 0.53 0.55 0.57 0.56 0.42 0.41 0.32 0.25 0.17 0.27 0.25 0.13 0.11 0.15 0.18 0.20 0.23 0.27 0.29 0.27 0.24 0.27 0.34 0.42 0.45 0.46 0.45 0.40 0.33 0.31 0.35 0.36 0.45 0.47 0.50 0.45 0.42 0.43 0.43 0.45 0.43 0.46 0.50 0.53 0.58 0.58 0.57 0.55 0.58 0.57 0.59 0.75 0.79 0.76 0.74 0.75 0.66 0.68 0.76 0.83 0.95 1.03 1.07 0.99 0.97 1.03 1.03 1.05 1.10 1.16 1.18 1.17 1.14 1.13
0.61 0.58 0.56 0.55 0.53 0.51 0.49 0.46 0.44 0.49 0.51 0.46 0.41 0.39 0.38 0.27 0.26 0.26 0.36 0.33 0.26 0.23 0.22 0.22 0.24 0.21 0.21 0.21 0.19 0.25 0.30 0.31 0.23 0.23 0.22 0.27 0.29 0.36 0.38 0.39 0.38 0.36 0.29 0.24 0.30 0.35 0.38 0.33 0.35 0.37 0.40 0.44 0.45 0.46 0.48 0.50 0.49 0.50 0.52 0.50 0.48 0.47 0.50 0.55 0.57 0.67 0.81 0.74 0.70 0.69 0.71 0.71 0.73 0.78 0.88 0.97 1.04 1.01 0.99 0.97 1.00 1.03 1.08 1.15 1.18 1.17 1.16 1.15
0.63 0.60 0.57 0.55 0.53 0.50 0.48 0.46 0.45 0.51 0.52 0.48 0.41 0.30 0.23 0.25 0.19 0.18 0.25 0.25 0.30 0.31 0.27 0.25 0.25 0.23 0.19 0.23 0.26 0.24 0.20 0.23 0.25 0.24 0.23 0.31 0.30 0.28 0.30 0.34 0.31 0.26 0.25 0.26 0.25 0.35 0.33 0.26 0.28 0.36 0.41 0.44 0.46 0.45 0.47 0.47 0.47 0.42 0.43 0.43 0.42 0.43 0.41 0.45 0.46 0.57 0.74 0.63 0.60 0.72 0.71 0.70 0.72 0.79 0.90 0.99 0.98 0.92 0.94 0.95 0.97 1.00 1.06 1.13 1.18 1.16 1.16 1.18
0.66 0.62 0.58 0.55 0.54 0.51 0.48 0.45 0.45 0.51 0.53 0.48 0.38 0.29 0.32 0.33 0.40 0.42 0.35 0.19 0.23 0.28 0.28 0.26 0.28 0.24 0.26 0.26 0.29 0.30 0.27 0.21 0.21 0.24 0.26 0.25 0.26 0.21 0.27 0.29 0.26 0.21 0.24 0.24 0.24 0.23 0.22 0.20 0.23 0.30 0.40 0.43 0.44 0.45 0.45 0.44 0.42 0.40 0.37 0.42 0.40 0.41 0.42 0.45 0.42 0.50 0.62 0.63 0.57 0.67 0.63 0.65 0.71 0.78 0.89 0.91 0.90 0.92 0.97 0.97 0.96 0.99 1.02 1.09 1.15 1.16 1.18 1.20
0.70 0.66 0.60 0.57 0.54 0.52 0.48 0.46 0.46 0.50 0.49 0.46 0.36 0.35 0.34 0.42 0.50 0.51 0.43 0.30 0.22 0.26 0.25 0.24 0.22 0.23 0.23 0.28 0.28 0.32 0.23 0.19 0.18 0.22 0.24 0.23 0.22 0.22 0.25 0.22 0.20 0.20 0.21 0.21 0.17 0.17 0.15 0.17 0.21 0.27 0.33 0.36 0.38 0.41 0.41 0.41 0.41 0.38 0.36 0.37 0.36 0.40 0.38 0.33 0.38 0.46 0.55 0.56 0.54 0.62 0.60 0.65 0.72 0.77 0.80 0.90 0.93 0.95 1.02 1.03 1.06 1.08 1.05 1.08 1.11 1.13 1.14 1.18
0.73 0.69 0.64 0.59 0.56 0.52 0.48 0.45 0.46 0.44 0.45 0.49 0.43 0.38 0.46 0.47 0.49 0.48 0.33 0.18 0.15 0.19 0.23 0.26 0.26 0.25 0.24 0.21 0.26 0.25 0.21 0.22 0.22 0.21 0.30 0.23 0.19 0.21 0.20 0.20 0.18 0.17 0.15 0.17 0.16 0.15 0.13 0.16 0.21 0.23 0.26 0.29 0.31 0.35 0.36 0.36 0.35 0.37 0.37 0.37 0.37 0.38 0.38 0.33 0.33 0.44 0.55 0.60 0.62 0.61 0.59 0.60 0.64 0.61 0.65 0.77 0.95 0.96 0.97 1.00 1.04 1.07 1.10 1.15 1.21 1.18 1.19 1.17
0.76 0.72 0.68 0.64 0.57 0.54 0.46 0.46 0.37 0.38 0.47 0.50 0.45 0.48 0.50 0.47 0.46 0.49 0.28 0.21 0.19 0.17 0.31 0.27 0.29 0.27 0.28 0.34 0.30 0.21 0.22 0.24 0.25 0.27 0.30 0.24 0.22 0.20 0.20 0.25 0.21 0.17 0.17 0.19 0.18 0.16 0.16 0.19 0.23 0.21 0.23 0.25 0.27 0.28 0.31 0.33 0.32 0.34 0.37 0.37 0.39 0.40 0.36 0.33 0.39 0.39 0.41 0.44 0.55 0.53 0.42 0.42 0.54 0.57 0.56 0.67 0.79 0.80 0.89 0.90 0.92 0.97 1.03 1.09 1.10 1.12 1.19 1.23
0.80 0.76 0.71 0.67 0.62 0.53 0.46 0.33 0.35 0.41 0.41 0.42 0.47 0.51 0.49 0.46 0.49 0.49 0.30 0.17 0.11 0.14 0.23 0.17 0.33 0.25 0.34 0.23 0.25 0.22 0.22 0.18 0.23 0.28 0.30 0.28 0.28 0.23 0.22 0.20 0.20 0.16 0.19 0.19 0.19 0.20 0.18 0.21 0.20 0.17 0.17 0.19 0.21 0.23 0.29 0.31 0.29 0.29 0.34 0.39 0.40 0.39 0.35 0.34 0.38 0.37 0.34 0.30 0.48 0.63 0.40 0.34 0.50 0.46 0.51 0.58 0.65 0.67 0.80 0.83 0.86 0.92 0.96 1.00 1.04 1.10 1.13 1.18
0.84 0.80 0.76 0.70 0.66 0.58 0.33 0.28 0.44 0.41 0.32 0.37 0.49 0.53 0.47 0.44 0.52 0.49 0.23 0.13 0.10 0.22 0.18 0.30 0.25 0.26 0.30 0.30 0.23 0.20 0.11 0.13 0.22 0.27 0.28 0.32 0.26 0.28 0.21 0.20 0.21 0.20 0.22 0.22 0.18 0.14 0.16 0.14 0.15 0.16 0.15 0.15 0.17 0.17 0.24 0.28 0.27 0.25 0.36 0.39 0.39 0.36 0.32 0.33 0.35 0.33 0.33 0.47 0.54 0.58 0.53 0.38 0.36 0.42 0.54 0.58 0.57 0.59 0.64 0.71 0.79 0.85 0.89 0.92 0.98 1.08 1.13 1.18
0.86 0.83 0.79 0.74 0.70 0.62 0.43 0.46 0.40 0.31 0.33 0.43 0.54 0.52 0.50 0.45 0.49 0.49 0.21 0.09 0.08 0.26 0.23 0.26 0.26 0.34 0.28 0.28 0.27 0.17 0.16 0.20 0.14 0.19 0.26 0.33 0.28 0.26 0.22 0.20 0.20 0.20 0.20 0.18 0.11 0.15 0.15 0.13 0.13 0.12 0.12 0.13 0.14 0.18 0.22 0.25 0.25 0.26 0.34 0.37 0.35 0.33 0.31 0.32 0.33 0.32 0.37 0.37 0.36 0.46 0.56 0.43 0.38 0.41 0.57 0.58 0.48 0.51 0.54 0.59 0.68 0.78 0.83 0.87 0.93 1.02 1.11 1.19
0.83 0.84 0.82 0.77 0.73 0.66 0.60 0.49 0.41 0.33 0.42 0.50 0.52 0.52 0.48 0.48 0.43 0.27 0.15 0.08 0.15 0.19 0.32 0.23 0.35 0.29 0.26 0.28 0.23 0.19 0.18 0.21 0.15 0.19 0.23 0.29 0.29 0.24 0.20 0.20 0.21 0.21 0.22 0.20 0.15 0.16 0.17 0.16 0.17 0.15 0.13 0.12 0.16 0.19 0.22 0.23 0.21 0.25 0.31 0.34 0.33 0.33 0.32 0.32 0.29 0.32 0.36 0.34 0.28 0.35 0.47 0.35 0.33 0.38 0.43 0.55 0.49 0.45 0.48 0.54 0.60 0.71 0.77 0.83 0.89 0.98 1.09 1.19
0.79 0.82 0.84 0.80 0.72 0.63 0.56 0.54 0.41 0.47 0.50 0.50 0.50 0.48 0.47 0.41 0.32 0.17 0.13 0.09 0.27 0.17 0.26 0.29 0.27 0.25 0.27 0.24 0.22 0.22 0.18 0.22 0.22 0.21 0.22 0.21 0.25 0.24 0.22 0.25 0.21 0.19 0.18 0.20 0.18 0.17 0.18 0.21 0.21 0.17 0.15 0.16 0.17 0.18 0.20 0.20 0.21 0.24 0.26 0.28 0.28 0.28 0.29 0.32 0.34 0.35 0.36 0.28 0.28 0.32 0.42 0.38 0.27 0.33 0.37 0.38 0.38 0.39 0.43 0.51 0.58 0.70 0.77 0.84 0.90 0.97 1.05 1.14
0.77 0.79 0.82 0.83 0.63 0.64 0.56 0.35 0.42 0.50 0.50 0.49 0.47 0.42 0.40 0.30 0.20 0.16 0.11 0.12 0.22 0.22 0.27 0.27 0.27 0.30 0.26 0.23 0.21 0.24 0.21 0.23 0.23 0.22 0.19 0.21 0.21 0.22 0.21 0.18 0.20 0.18 0.17 0.17 0.16 0.17 0.18 0.19 0.18 0.19 0.20 0.19 0.19 0.17 0.19 0.20 0.21 0.21 0.22 0.22 0.23 0.23 0.27 0.28 0.29 0.36 0.27 0.24 0.28 0.34 0.40 0.44 0.29 0.31 0.37 0.43 0.44 0.48 0.47 0.44 0.49 0.61 0.69 0.77 0.85 0.94 1.04 1.13
0.76 0.77 0.80 0.78 0.77 0.75 0.48 0.34 0.46 0.54 0.50 0.48 0.42 0.32 0.29 0.18 0.22 0.15 0.13 0.26 0.13 0.22 0.22 0.25 0.29 0.28 0.28 0.28 0.24 0.23 0.22 0.22 0.24 0.23 0.20 0.19 0.18 0.17 0.17 0.14 0.15 0.11 0.11 0.12 0.12 0.16 0.15 0.16 0.18 0.18 0.23 0.19 0.17 0.15 0.17 0.18 0.19 0.19 0.20 0.20 0.19 0.19 0.21 0.20 0.23 0.21 0.22 0.21 0.28 0.33 0.38 0.37 0.34 0.34 0.36 0.42 0.48 0.50 0.54 0.51 0.54 0.61 0.68 0.78 0.86 0.94 1.05 1.14
0.74 0.74 0.76 0.78 0.78 0.65 0.60 0.58 0.60 0.55 0.51 0.44 0.34 0.33 0.20 0.16 0.13 0.17 0.16 0.19 0.17 0.24 0.25 0.30 0.28 0.27 0.28 0.26 0.24 0.25 0.26 0.21 0.26 0.24 0.24 0.22 0.19 0.19 0.19 0.17 0.18 0.14 0.10 0.13 0.12 0.13 0.13 0.16 0.16 0.16 0.17 0.19 0.18 0.14 0.14 0.14 0.16 0.17 0.17 0.19 0.17 0.16 0.17 0.17 0.19 0.22 0.21 0.25 0.30 0.29 0.38 0.27 0.34 0.36 0.39 0.38 0.44 0.50 0.53 0.56 0.64 0.66 0.71 0.79 0.87 0.97 1.07 1.14
0.69 0.72 0.67 0.73 0.74 0.70 0.63 0.64 0.59 0.55 0.43 0.38 0.32 0.24 0.19 0.14 0.13 0.31 0.18 0.18 0.18 0.26 0.28 0.28 0.27 0.27 0.27 0.24 0.25 0.26 0.23 0.25 0.24 0.23 0.23 0.21 0.20 0.17 0.17 0.17 0.18 0.16 0.14 0.15 0.12 0.13 0.10 0.10 0.12 0.13 0.12 0.17 0.17 0.16 0.17 0.17 0.16 0.16 0.19 0.19 0.18 0.18 0.16 0.15 0.16 0.15 0.17 0.20 0.24 0.39 0.28 0.26 0.24 0.28 0.44 0.48 0.53 0.54 0.56 0.60 0.67 0.73 0.78 0.85 0.92 0.99 1.08 1.12
0.67 0.67 0.69 0.71 0.72 0.70 0.66 0.64 0.56 0.51 0.41 0.32 0.27 0.21 0.15 0.14 0.16 0.19 0.20 0.22 0.22 0.23 0.25 0.29 0.26 0.25 0.25 0.26 0.28 0.27 0.26 0.22 0.24 0.22 0.21 0.19 0.17 0.16 0.15 0.15 0.18 0.18 0.17 0.12 0.14 0.13 0.12 0.11 0.14 0.14 0.14 0.16 0.15 0.18 0.20 0.19 0.18 0.18 0.19 0.20 0.17 0.16 0.20 0.15 0.17 0.16 0.16 0.17 0.19 0.26 0.21 0.23 0.22 0.32 0.39 0.48 0.50 0.51 0.54 0.58 0.65 0.72 0.79 0.86 0.89 0.93 1.00 1.07
0.60 0.60 0.67 0.59 0.63 0.67 0.69 0.65 0.55 0.47 0.34 0.28 0.23 0.19 0.15 0.16 0.16 0.21 0.21 0.28 0.25 0.20 0.23 0.26 0.26 0.24 0.24 0.24 0.26 0.25 0.28 0.23 0.23 0.22 0.20 0.19 0.19 0.17 0.18 0.17 0.17 0.18 0.15 0.12 0.15 0.12 0.12 0.10 0.13 0.14 0.15 0.15 0.15 0.17 0.19 0.20 0.15 0.18 0.18 0.16 0.17 0.21 0.20 0.19 0.20 0.21 0.19 0.16 0.14 0.22 0.18 0.20 0.30 0.29 0.36 0.44 0.47 0.51 0.58 0.61 0.66 0.73 0.79 0.83 0.85 0.93 1.00 1.07
0.51 0.59 0.48 0.56 0.61 0.72 0.70 0.63 0.53 0.40 0.32 0.26 0.21 0.17 0.19 0.20 0.22 0.24 0.27 0.25 0.25 0.23 0.22 0.21 0.23 0.23 0.23 0.22 0.22 0.22 0.23 0.24 0.23 0.21 0.18 0.20 0.17 0.18 0.18 0.18 0.19 0.18 0.18 0.16 0.14 0.16 0.11 0.11 0.14 0.13 0.13 0.17 0.18 0.18 0.18 0.19 0.19 0.18 0.14 0.18 0.22 0.23 0.22 0.18 0.14 0.16 0.15 0.13 0.14 0.19 0.16 0.18 0.21 0.16 0.32 0.39 0.41 0.53 0.60 0.63 0.69 0.75 0.80 0.80 0.86 0.93 1.00 1.05
0.50 0.52 0.54 0.54 0.61 0.72 0.72 0.63 0.48 0.37 0.28 0.23 0.19 0.20 0.26 0.19 0.26 0.26 0.29 0.26 0.24 0.23 0.23 0.22 0.24 0.27 0.23 0.24 0.22 0.22 0.23 0.20 0.21 0.20 0.18 0.20 0.16 0.20 0.18 0.18 0.18 0.18 0.18 0.19 0.15 0.16 0.16 0.12 0.14 0.16 0.16 0.18 0.19 0.18 0.17 0.18 0.19 0.17 0.16 0.22 0.16 0.15 0.14 0.17 0.16 0.12 0.12 0.11 0.12 0.17 0.22 0.22 0.23 0.19 0.22 0.26 0.38 0.48 0.57 0.66 0.69 0.72 0.77 0.80 0.86 0.93 1.01 1.07
0.54 0.49 0.36 0.50 0.63 0.71 0.71 0.61 0.43 0.32 0.26 0.19 0.18 0.18 0.24 0.24 0.30 0.27 0.28 0.28 0.26 0.23 0.21 0.24 0.24 0.27 0.27 0.24 0.24 0.24 0.22 0.19 0.21 0.20 0.17 0.19 0.16 0.20 0.19 0.19 0.17 0.19 0.19 0.19 0.17 0.17 0.18 0.14 0.14 0.17 0.17 0.18 0.19 0.18 0.15 0.16 0.19 0.20 0.20 0.19 0.21 0.18 0.17 0.15 0.16 0.17 0.15 0.12 0.13 0.12 0.19 0.14 0.22 0.23 0.27 0.29 0.37 0.46 0.54 0.61 0.67 0.73 0.77 0.80 0.84 0.90 0.97 1.04
0.46 0.36 0.36 0.59 0.66 0.70 0.69 0.54 0.37 0.30 0.24 0.17 0.19 0.19 0.27 0.23 0.25 0.27 0.28 0.26 0.23 0.22 0.23 0.24 0.27 0.26 0.26 0.26 0.25 0.22 0.23 0.21 0.21 0.20 0.19 0.20 0.19 0.22 0.20 0.20 0.18 0.19 0.20 0.20 0.19 0.20 0.17 0.18 0.13 0.16 0.18 0.19 0.16 0.17 0.17 0.18 0.17 0.18 0.18 0.18 0.19 0.18 0.21 0.19 0.19 0.16 0.15 0.14 0.13 0.13 0.11 0.14 0.21 0.35 0.35 0.38 0.44 0.51 0.57 0.61 0.70 0.76 0.80 0.84 0.88 0.94 1.04 1.11
0.56 0.38 0.38 0.64 0.67 0.69 0.62 0.48 0.31 0.25 0.22 0.24 0.24 0.21 0.24 0.22 0.26 0.26 0.27 0.27 0.24 0.27 0.25 0.25 0.25 0.24 0.26 0.25 0.24 0.25 0.23 0.22 0.22 0.20 0.21 0.21 0.21 0.18 0.23 0.22 0.21 0.19 0.21 0.20 0.19 0.18 0.17 0.16 0.14 0.16 0.16 0.16 0.16 0.19 0.19 0.19 0.19 0.19 0.18 0.17 0.18 0.17 0.16 0.15 0.15 0.19 0.18 0.16 0.15 0.14 0.13 0.15 0.25 0.50 0.51 0.50 0.57 0.59 0.67 0.69 0.72 0.78 0.84 0.89 0.95 1.03 1.10 1.14
0.39 0.26 0.34 0.63 0.70 0.66 0.51 0.33 0.29 0.32 0.25 0.21 0.20 0.22 0.21 0.28 0.24 0.25 0.25 0.26 0.24 0.22 0.29 0.26 0.27 0.26 0.27 0.26 0.25 0.24 0.23 0.22 0.22 0.21 0.22 0.21 0.22 0.22 0.24 0.24 0.22 0.22 0.19 0.17 0.17 0.19 0.19 0.19 0.17 0.15 0.16 0.16 0.18 0.21 0.24 0.24 0.23 0.21 0.20 0.19 0.20 0.20 0.20 0.18 0.14 0.17 0.19 0.19 0.24 0.21 0.16 0.16 0.41 0.61 0.62 0.62 0.62 0.65 0.71 0.76 0.75 0.82 0.87 0.93 1.01 1.10 1.18 1.21
0.39 0.30 0.58 0.68 0.70 0.63 0.44 0.31 0.38 0.30 0.25 0.26 0.31 0.27 0.29 0.28 0.26 0.26 0.23 0.24 0.21 0.23 0.23 0.24 0.24 0.26 0.28 0.27 0.26 0.24 0.25 0.23 0.23 0.21 0.23 0.23 0.23 0.24 0.26 0.25 0.23 0.22 0.21 0.19 0.20 0.21 0.22 0.18 0.16 0.16 0.18 0.19 0.23 0.25 0.26 0.26 0.24 0.22 0.23 0.23 0.24 0.23 0.24 0.21 0.20 0.20 0.18 0.21 0.21 0.26 0.19 0.21 0.42 0.68 0.68 0.69 0.71 0.73 0.79 0.82 0.80 0.84 0.92 1.00 1.07 1.14 1.19 1.21
0.43 0.38 0.45 0.68 0.71 0.61 0.39 0.26 0.26 0.28 0.26 0.30 0.30 0.28 0.31 0.27 0.25 0.25 0.22 0.23 0.21 0.22 0.23 0.24 0.26 0.28 0.27 0.29 0.27 0.25 0.27 0.22 0.24 0.23 0.22 0.24 0.24 0.29 0.28 0.27 0.24 0.21 0.19 0.19 0.17 0.25 0.17 0.19 0.17 0.15 0.15 0.17 0.20 0.22 0.25 0.29 0.27 0.25 0.26 0.29 0.29 0.27 0.26 0.26 0.24 0.24 0.19 0.22 0.22 0.21 0.19 0.24 0.47 0.70 0.74 0.75 0.74 0.73 0.78 0.88 0.93 0.89 0.97 1.06 1.12 1.18 1.24 1.29
0.44 0.46 0.48 0.57 0.67 0.55 0.34 0.37 0.33 0.29 0.28 0.26 0.27 0.25 0.26 0.26 0.28 0.26 0.24 0.22 0.24 0.22 0.22 0.22 0.24 0.27 0.28 0.30 0.27 0.27 0.27 0.25 0.23 0.25 0.26 0.26 0.28 0.29 0.30 0.24 0.23 0.21 0.21 0.22 0.21 0.24 0.17 0.19 0.16 0.14 0.13 0.12 0.13 0.13 0.17 0.20 0.23 0.27 0.27 0.31 0.30 0.25 0.25 0.24 0.21 0.23 0.19 0.27 0.31 0.27 0.26 0.32 0.53 0.70 0.72 0.78 0.80 0.80 0.88 0.95 1.04 1.07 1.07 1.12 1.18 1.23 1.28 1.33
0.39 0.23 0.42 0.48 0.54 0.49 0.43 0.46 0.41 0.36 0.30 0.28 0.26 0.27 0.28 0.23 0.27 0.28 0.26 0.22 0.23 0.22 0.23 0.23 0.24 0.26 0.26 0.26 0.25 0.25 0.25 0.27 0.25 0.24 0.26 0.27 0.28 0.28 0.29 0.22 0.21 0.21 0.23 0.24 0.23 0.22 0.19 0.21 0.18 0.17 0.17 0.16 0.18 0.20 0.25 0.27 0.26 0.24 0.27 0.29 0.28 0.28 0.29 0.28 0.28 0.25 0.22 0.33 0.31 0.33 0.32 0.34 0.41 0.57 0.67 0.77 0.82 0.81 0.84 0.95 1.00 1.06 1.14 1.21 1.25 1.28 1.33 1.38
0.52 0.33 0.38 0.34 0.45 0.42 0.38 0.39 0.37 0.39 0.33 0.36 0.25 0.28 0.24 0.24 0.26 0.25 0.27 0.20 0.22 0.21 0.21 0.22 0.23 0.23 0.25 0.26 0.26 0.25 0.26 0.25 0.27 0.26 0.29 0.28 0.29 0.30 0.35 0.36 0.31 0.28 0.28 0.25 0.26 0.23 0.21 0.19 0.21 0.21 0.21 0.21 0.23 0.24 0.28 0.29 0.28 0.29 0.30 0.30 0.34 0.31 0.31 0.29 0.27 0.28 0.37 0.31 0.27 0.37 0.43 0.38 0.42 0.55 0.67 0.72 0.82 0.88 0.94 1.00 1.07 1.14 1.21 1.25 1.30 1.34 1.37 1.39
0.28 0.40 0.50 0.56 0.40 0.33 0.33 0.33 0.38 0.37 0.41 0.40 0.31 0.31 0.26 0.24 0.23 0.20 0.23 0.22 0.21 0.23 0.20 0.22 0.24 0.25 0.25 0.25 0.26 0.24 0.26 0.25 0.25 0.25 0.30 0.31 0.30 0.31 0.31 0.32 0.29 0.33 0.30 0.26 0.29 0.25 0.22 0.20 0.25 0.23 0.24 0.25 0.26 0.27 0.30 0.33 0.35 0.35 0.35 0.35 0.34 0.36 0.34 0.31 0.34 0.39 0.40 0.31 0.28 0.35 0.41 0.39 0.48 0.58 0.70 0.78 0.85 0.90 0.98 1.06 1.16 1.25 1.31 1.34 1.33 1.32 1.32 1.34
0.47 0.52 0.53 0.65 0.44 0.48 0.46 0.46 0.43 0.38 0.36 0.42 0.39 0.35 0.29 0.28 0.26 0.24 0.22 0.24 0.21 0.20 0.21 0.19 0.23 0.26 0.27 0.28 0.27 0.26 0.27 0.24 0.23 0.28 0.29 0.29 0.29 0.30 0.30 0.30 0.32 0.34 0.30 0.31 0.31 0.33 0.27 0.25 0.27 0.26 0.25 0.26 0.28 0.31 0.35 0.36 0.35 0.36 0.36 0.37 0.39 0.38 0.38 0.39 0.39 0.43 0.41 0.38 0.40 0.40 0.42 0.43 0.54 0.63 0.75 0.85 0.99 1.04 1.12 1.21 1.24 1.26 1.29 1.34 1.35 1.31 1.32 1.34
0.38 0.37 0.41 0.60 0.57 0.52 0.51 0.50 0.46 0.41 0.34 0.40 0.36 0.38 0.35 0.32 0.29 0.33 0.33 0.28 0.24 0.22 0.24 0.19 0.23 0.26 0.28 0.29 0.29 0.27 0.27 0.28 0.27 0.26 0.29 0.30 0.30 0.32 0.33 0.33 0.33 0.35 0.36 0.33 0.33 0.35 0.28 0.28 0.34 0.28 0.27 0.28 0.34 0.38 0.38 0.39 0.35 0.32 0.39 0.40 0.40 0.40 0.40 0.43 0.44 0.46 0.50 0.44 0.47 0.45 0.43 0.41 0.62 0.77 0.85 0.99 1.06 1.15 1.17 1.17 1.21 1.29 1.34 1.33 1.30 1.29 1.30 1.33
0.61 0.68 0.64 0.51 0.43 0.48 0.54 0.51 0.46 0.42 0.35 0.36 0.36 0.40 0.37 0.35 0.31 0.35 0.35 0.36 0.29 0.25 0.25 0.21 0.25 0.27 0.30 0.32 0.32 0.30 0.32 0.31 0.31 0.30 0.31 0.32 0.29 0.34 0.33 0.35 0.42 0.37 0.37 0.35 0.34 0.35 0.33 0.30 0.35 0.31 0.28 0.29 0.36 0.39 0.41 0.43 0.39 0.36 0.36 0.38 0.38 0.38 0.35 0.39 0.39 0.47 0.42 0.38 0.44 0.43 0.40 0.40 0.63 0.81 0.92 0.97 1.00 1.04 1.06 1.11 1.16 1.23 1.29 1.30 1.25 1.26 1.28 1.32
0.57 0.71 0.72 0.60 0.44 0.53 0.48 0.52 0.51 0.45 0.34 0.38 0.38 0.40 0.41 0.40 0.42 0.43 0.31 0.36 0.35 0.33 0.31 0.30 0.33 0.33 0.32 0.32 0.31 0.32 0.35 0.36 0.35 0.34 0.34 0.34 0.35 0.35 0.36 0.39 0.41 0.40 0.38 0.36 0.40 0.34 0.33 0.31 0.30 0.31 0.27 0.29 0.38 0.43 0.41 0.41 0.39 0.33 0.35 0.39 0.41 0.43 0.43 0.45 0.48 0.52 0.52 0.49 0.41 0.36 0.41 0.55 0.66 0.82 0.79 0.88 0.94 1.03 1.09 1.12 1.16 1.22 1.27 1.29 1.27 1.25 1.28 1.32
Wind_Speed
4 4 5 5 6 6 6 6 7 7 7 7 7 8 8 7 7 6 6 5 5 4 4 3 2 1 0 1 2 3 4 4 5 6 6 6 6 7 8 8 10 11 11 11 10 10 9 9 9 9 10 9 9 10 10 10 11 12 12 12 13 12 11 11 11 10 12 12 11 11 10 11 10 9 10 9 9 9 8 7 7 6 6 6 7 8 9 8
3 4 5 5 6 6 6 7 7 7 8 8 8 8 8 8 8 8 7 7 6 6 5 4 3 3 2 1 1 2 2 3 4 5 5 5 6 6 7 8 9 10 10 10 9 9 9 8 8 9 10 10 9 10 10 10 11 11 12 12 11 11 11 12 12 11 11 12 12 11 11 11 10 9 10 9 8 8 8 7 7 7 7 7 8 9 9 8
3 4 5 5 6 6 7 7 7 8 8 8 8 8 9 9 9 9 9 8 7 7 6 5 5 4 3 2 1 0 1 3 3 4 4 5 6 6 7 8 9 9 9 8 8 9 8 8 8 9 9 10 9 9 10 10 11 11 12 11 9 10 11 12 12 12 11 12 12 11 11 11 10 10 9 9 9 8 7 7 7 7 7 8 8 9 8 8
3 4 4 5 6 7 7 7 8 8 9 9 9 9 9 9 10 10 10 9 8 8 8 7 6 5 5 4 3 2 2 3 3 3 4 5 6 6 7 7 8 8 7 8 8 8 8 9 8 7 8 9 9 9 9 9 10 11 11 10 9 10 11 11 12 12 12 13 12 11 11 11 10 9 9 10 10 8 6 6 7 8 8 8 8 8 8 8
4 4 4 5 6 6 7 8 8 8 9 9 10 10 10 10 10 10 10 10 9 9 9 8 7 6 6 5 4 4 3 4 4 4 4 5 5 6 7 7 7 7 6 7 7 7 8 8 7 7 7 8 8 9 9 7 9 11 9 9 9 10 11 10 11 12 12 12 12 11 10 10 10 9 9 9 9 7 5 5 6 7 8 8 8 8 8 7
5 5 5 5 5 6 7 7 8 9 9 9 10 10 10 11 11 11 11 11 10 10 10 9 9 8 7 6 6 6 5 5 5 5 5 6 5 5 6 6 7 5 5 6 6 7 7 7 6 6 5 6 7 7 8 7 8 10 9 8 9 9 10 10 10 11 11 11 10 10 9 10 10 9 8 7 6 6 5 6 7 7 8 8 8 8 7 7
6 6 6 6 6 6 6 7 8 8 9 10 10 10 10 11 11 12 12 11 11 11 10 10 10 9 8 7 7 7 7 7 6 6 7 6 6 6 6 6 6 4 4 5 5 5 5 6 5 4 4 4 5 4 6 8 7 8 9 8 8 9 10 9 9 10 10 10 9 9 9 9 8 8 7 5 4 6 7 7 7 7 8 8 8 7 7 6
7 7 7 7 7 7 7 7 7 8 9 9 10 10 10 11 11 12 12 12 12 12 11 11 10 10 9 9 9 7 8 8 7 8 8 7 6 6 6 5 4 3 2 3 3 3 4 4 3 4 3 2 3 3 5 7 7 6 7 8 8 9 9 9 9 9 9 9 8 9 8 7 7 7 7 5 4 6 7 7 7 7 8 7 7 7 6 5
7 8 7 7 7 8 8 8 8 8 8 9 9 10 10 11 11 12 12 13 13 12 12 12 11 11 10 10 9 9 10 9 8 9 9 8 7 7 6 5 5 3 1 1 1 2 2 2 2 2 2 2 2 3 4 6 6 4 5 7 8 8 9 8 8 7 7 7 8 8 7 7 6 7 6 4 5 5 6 6 6 7 7 6 6 6 5 4
8 8 8 8 8 9 9 8 9 9 9 9 9 9 10 10 11 11 12 12 13 13 13 12 12 11 11 11 10 10 11 10 9 10 10 9 8 7 7 6 6 5 2 2 2 1 1 0 1 1 2 2 2 2 3 4 4 5 7 7 7 7 7 7 7 6 6 6 6 7 7 6 6 7 6 4 5 5 5 5 5 6 6 6 5 4 4 3
9 9 9 9 9 9 9 9 9 9 9 9 9 9 9 10 10 11 11 11 12 12 13 13 12 12 12 12 12 12 11 11 11 11 10 10 9 9 8 7 7 6 5 3 3 4 3 2 2 3 2 2 2 2 2 2 3 6 8 8 7 7 6 5 6 5 5 5 4 6 7 6 6 6 5 4 4 4 4 4 4 4 5 5 4 3 3 2
10 10 10 10 10 10 10 10 10 10 10 9 9 9 9 9 9 10 10 10 10 11 12 12 12 13 13 13 15 15 13 12 12 12 12 12 11 10 9 9 8 8 6 5 4 4 3 3 3 3 2 1 2 1 1 1 4 5 6 6 5 6 4 3 4 3 4 4 3 5 7 5 4 4 4 4 4 3 3 3 3 3 3 4 3 2 2 2
12 11 11 11 11 11 11 11 10 10 10 10 9 9 9 9 9 9 9 9 9 10 10 11 12 13 13 14 16 17 15 14 14 14 14 13 12 12 10 10 10 9 7 6 6 5 4 4 3 2 2 1 1 1 1 2 3 3 3 4 4 5 3 1 2 2 2 3 3 3 5 4 2 2 4 3 3 3 2 2 3 2 2 3 2 2 2 2
13 13 13 12 12 12 12 11 11 11 11 10 10 9 9 9 8 8 8 8 8 9 9 10 10 11 12 14 16 16 17 16 16 16 15 14 14 13 12 11 10 10 9 8 8 6 6 5 3 3 3 1 1 2 1 1 1 1 1 2 2 3 3 1 2 2 1 1 2 2 4 3 3 2 2 2 2 3 2 1 2 2 2 3 2 2 2 2
15 14 14 13 13 13 13 13 12 11 11 11 11 10 9 9 8 7 7 7 7 8 8 9 9 9 11 14 15 15 16 17 17 18 17 16 15 14 13 12 11 11 10 9 9 8 7 6 4 3 3 2 2 2 1 1 1 1 1 2 2 2 3 3 1 2 0 2 1 1 3 4 4 2 0 1 1 1 1 1 2 3 3 3 2 2 2 3
16 16 15 15 15 14 14 14 13 13 12 12 12 11 10 9 8 7 7 7 7 8 8 8 9 9 9 11 12 13 15 16 17 17 18 17 17 16 14 12 12 11 11 10 10 9 8 6 5 4 4 3 2 1 1 1 3 3 2 3 3 2 3 4 3 2 2 2 3 3 4 4 5 2 0 1 1 1 0 1 2 4 4 4 3 3 3 3
18 18 17 16 16 15 15 15 14 14 14 13 13 12 11 10 9 9 9 8 8 9 8 9 9 9 10 10 11 11 13 15 16 16 17 18 18 17 15 13 13 12 12 11 11 10 9 8 7 6 5 4 4 2 2 3 5 5 4 4 5 4 3 5 6 5 3 3 5 6 6 6 6 3 1 2 3 2 1 2 3 4 5 5 4 4 4 4
19 19 18 18 18 17 16 16 15 15 15 15 14 13 12 12 12 11 11 10 10 10 9 9 9 9 10 10 10 11 11 13 14 15 16 18 19 18 16 14 14 13 12 11 11 10 10 9 8 7 6 5 5 4 4 6 6 6 6 6 7 6 5 7 8 6 5 5 6 7 7 7 7 5 3 4 4 3 3 3 4 5 5 5 4 4 5 4
19 19 19 19 19 18 18 17 16 16 16 15 14 13 13 13 13 13 13 12 12 11 10 10 10 9 10 10 11 11 11 12 13 14 16 16 17 17 16 15 14 13 12 12 12 11 11 10 9 9 9 8 8 7 7 7 6 5 6 6 7 7 8 8 9 7 6 7 8 8 7 7 6 5 5 5 4 5 4 4 5 6 6 5 4 5 6 5
20 20 20 20 20 20 19 19 17 16 15 14 14 13 13 13 13 13 14 13 14 13 13 13 13 12 12 12 12 11 11 12 12 13 14 15 16 16 15 15 14 13 13 13 13 12 11 12 12 12 12 11 10 10 9 7 5 5 5 6 7 8 9 9 9 8 6 7 10 10 9 8 6 6 6 5 5 6 6 5 5 6 6 6 5 6 7 6
20 20 20 20 20 20 20 20 19 17 15 14 13 13 13 13 13 14 15 15 15 15 16 16 15 15 15 14 13 12 11 11 12 12 13 14 15 15 15 14 13 14 14 13 14 13 12 13 15 15 14 12 12 11 10 8 7 6 6 7 8 8 9 9 8 8 7 9 11 10 10 10 8 8 7 6 5 6 7 6 6 7 7 6 6 7 7 6
21 21 21 21 21 20 21 20 19 18 16 14 13 12 12 13 14 15 15 15 17 17 17 17 16 17 16 15 15 14 12 11 12 13 13 13 14 15 14 13 13 14 13 12 13 13 14 15 17 16 14 11 11 12 11 11 10 9 9 9 9 9 10 10 9 8 8 10 11 10 11 12 10 9 8 8 8 8 8 8 7 8 8 7 7 7 7 6
22 22 21 21 21 21 21 21 19 18 16 15 14 13 13 14 15 15 15 16 18 17 17 17 17 17 17 16 17 15 14 13 13 13 13 13 14 15 13 13 13 14 13 13 14 15 15 16 16 16 14 13 13 13 12 12 11 11 10 10 10 10 9 10 11 9 8 9 10 10 11 12 11 10 9 10 10 9 9 9 8 8 9 9 8 8 8 7
22 22 21 21 22 21 21 21 19 17 17 17 15 14 15 16 16 15 15 16 17 16 16 17 17 17 17 17 17 16 15 15 14 14 14 13 14 14 14 13 13 13 14 15 16 16 17 17 15 14 14 15 15 15 13 13 13 13 12 11 11 11 10 11 11 10 9 10 10 9 10 13 12 10 10 10 10 11 10 9 9 9 9 9 9 9 9 9
22 22 22 21 21 22 21 20 19 17 17 17 17 16 16 16 16 16 16 15 15 16 16 15 15 16 17 16 16 17 16 16 16 16 16 15 15 13 14 14 12 14 15 14 15 16 17 17 15 15 16 16 16 17 15 15 15 15 14 13 13 13 12 10 9 9 9 11 11 9 9 12 12 11 12 9 9 11 11 10 10 9 9 9 9 9 10 9
21 21 21 21 21 22 21 20 19 18 18 18 17 17 16 17 16 16 15 13 14 15 14 14 13 14 15 16 16 16 15 16 18 18 17 17 16 14 14 14 13 14 14 13 14 15 15 15 15 16 17 16 17 18 16 15 15 15 15 13 13 13 11 9 8 8 8 10 11 10 10 11 11 12 12 9 9 12 11 11 11 10 9 10 10 10 10 10
20 20 21 21 21 21 20 20 20 18 18 18 18 17 17 16 16 15 14 12 13 14 12 13 12 12 13 15 16 15 14 15 17 19 19 18 17 16 15 15 13 13 13 13 14 14 13 14 14 16 16 17 17 17 17 16 15 15 14 13 12 13 11 10 10 10 10 10 10 9 10 11 11 12 11 9 10 12 13 13 12 11 11 11 11 11 10 10
20 20 20 20 20 20 20 21 20 19 19 19 18 18 17 16 15 13 11 10 12 11 11 12 12 12 12 13 15 16 14 14 13 17 20 19 18 16 16 17 15 15 14 13 15 15 13 13 14 15 16 17 17 16 16 16 16 16 15 13 13 13 13 11 11 12 11 10 10 11 10 10 12 13 11 9 11 13 14 14 14 13 12 12 11 11 11 11
20 20 20 20 20 20 20 21 21 20 20 19 18 18 17 15 14 12 10 11 11 10 10 11 11 12 11 11 14 15 14 13 12 14 17 18 19 16 16 18 16 16 16 15 16 16 14 14 14 14 14 16 16 16 16 16 16 16 14 13 12 11 12 11 11 12 11 10 11 12 11 10 11 12 10 9 12 14 12 12 13 13 13 12 11 11 11 10
20 20 20 20 20 20 20 21 21 21 20 19 19 18 16 15 13 11 11 12 11 10 10 10 11 11 10 10 12 13 13 13 12 12 13 15 17 16 16 16 15 15 16 16 16 17 16 15 14 13 14 15 16 16 16 17 16 14 13 13 12 12 12 12 12 11 10 11 13 13 12 11 11 12 11 10 12 12 10 10 11 11 11 12 11 11 11 10
21 21 21 20 20 20 20 20 20 20 20 20 19 18 16 15 13 12 12 12 11 10 9 9 10 11 10 11 12 12 13 13 12 11 12 12 13 13 14 15 14 14 16 16 16 16 16 15 15 15 16 15 14 14 15 15 14 13 12 13 12 13 13 12 12 11 10 12 14 12 11 12 12 13 12 12 12 10 9 11 10 9 10 11 11 11 10 10
22 22 21 21 21 21 21 21 20 19 20 19 18 17 16 15 15 15 13 11 10 11 10 9 10 10 10 11 12 12 12 13 13 12 13 13 13 14 14 15 15 13 14 16 16 15 16 16 15 15 15 15 14 14 14 13 12 12 12 11 11 12 11 11 12 11 12 13 13 12 10 11 14 15 15 14 14 12 12 12 9 7 9 10 10 10 10 10
22 23 22 22 21 21 22 22 21 20 20 19 18 17 16 16 17 17 15 12 11 10 10 10 9 10 10 10 11 11 11 12 12 12 13 13 13 14 14 14 14 13 13 14 14 14 14 15 14 13 14 15 14 14 14 13 12 12 12 12 12 11 10 12 12 12 13 14 13 12 11 12 14 15 15 14 14 14 15 13 10 8 9 10 10 10 9 10
23 23 22 22 22 23 23 22 21 20 20 19 18 17 18 18 18 16 16 16 14 11 10 10 10 10 10 11 11 11 10 11 11 10 11 11 12 14 14 14 13 13 12 12 12 13 12 12 13 13 12 13 15 15 14 12 12 12 12 11 12 11 10 12 12 12 13 12 12 12 11 12 12 12 12 12 12 13 13 12 10 8 9 9 10 9 9 9
23 22 22 23 23 23 23 22 21 21 21 19 18 19 20 20 17 16 16 16 15 13 12 11 10 9 9 10 11 11 10 10 10 9 10 10 11 12 12 13 13 12 11 12 12 11 11 12 13 12 11 11 13 14 13 11 11 12 11 10 12 12 11 11 11 11 11 11 11 12 13 13 13 13 12 11 10 11 10 9 7 7 8 9 9 9 9 9
22 22 21 22 23 23 23 22 22 21 21 19 19 21 21 19 17 16 16 15 14 14 13 11 9 8 8 9 9 9 9 9 9 9 10 10 11 12 12 12 12 12 11 11 11 9 9 11 10 9 9 10 11 12 12 12 11 10 10 12 12 11 9 9 10 10 9 10 11 11 12 13 12 12 10 8 8 8 7 6 6 7 8 8 8 8 8 9
22 21 21 22 23 23 23 22 22 22 21 20 21 22 21 19 18 17 16 15 15 14 12 11 10 9 9 9 9 8 8 8 9 10 11 10 10 11 11 11 11 13 12 11 10 9 8 9 8 7 9 9 9 10 10 12 11 10 11 12 10 9 8 9 9 8 8 9 11 10 10 11 9 9 8 7 7 7 7 6 5 6 7 7 7 8 8 8
22 22 22 22 22 23 23 23 23 22 21 21 22 22 20 19 19 18 16 15 15 14 12 12 11 10 9 9 10 9 8 8 8 9 10 10 10 9 9 9 10 12 13 11 9 9 8 7 7 8 8 7 6 7 9 11 11 11 12 10 9 9 9 9 8 8 8 8 9 9 10 10 9 9 9 8 7 7 7 7 6 6 7 7 7 8 9 9
22 21 21 22 22 23 24 25 24 22 22 22 23 22 20 20 20 19 18 16 15 14 14 14 12 10 10 10 10 9 8 8 7 7 8 8 9 9 8 9 9 11 13 12 10 9 8 7 7 8 8 5 4 5 8 10 10 11 11 10 9 9 9 9 8 8 8 8 8 9 8 8 9 10 9 10 9 8 7 7 7 7 8 8 8 9 9 9
21 21 21 22 22 23 25 25 24 23 23 23 23 22 20 20 20 20 20 18 16 15 15 15 13 11 11 10 10 9 9 8 7 7 7 7 8 8 8 9 8 8 11 12 11 10 9 9 8 8 6 5 5 6 7 8 9 9 10 10 10 9 8 8 8 7 7 7 7 8 8 9 9 8 8 10 10 9 8 8 8 9 8 9 9 9 9 9
21 21 21 21 21 23 24 24 24 24 24 24 22 21 21 21 20 20 20 20 19 17 16 16 14 12 12 11 10 9 8 8 8 7 7 7 7 7 8 10 9 7 8 10 11 11 11 11 10 8 6 5 7 8 8 8 8 8 9 9 10 10 9 8 8 9 8 7 7 7 8 10 10 8 9 10 9 9 9 9 9 9 9 9 9 9 9 9
21 21 21 20 21 23 23 24 25 24 24 24 23 22 21 21 21 21 21 20 20 19 17 16 15 14 13 12 11 10 8 8 8 7 7 7 8 8 8 9 10 9 9 10 10 11 11 11 10 10 9 8 8 8 8 8 8 7 7 8 8 8 8 8 9 9 8 7 7 6 7 10 10 9 10 10 9 8 9 9 9 9 9 9 9 9 9 9
21 22 23 22 23 24 23 24 25 24 24 24 22 22 22 22 22 22 21 20 20 19 18 17 16 14 13 12 11 10 8 8 8 8 7 7 8 10 10 10 11 10 9 9 10 11 11 10 10 9 9 8 7 6 7 8 7 6 7 7 7 7 7 8 10 9 7 7 7 6 8 10 10 9 9 9 8 7 8 8 8 9 10 10 10 9 9 9
21 23 24 24 25 25 25 25 25 25 25 23 22 23 23 23 23 23 22 22 21 19 18 18 16 15 14 12 11 11 10 8 8 7 7 7 8 9 9 11 12 10 9 9 10 11 12 11 10 8 6 6 6 6 6 7 6 6 8 8 8 7 6 7 8 7 8 8 7 6 8 10 9 9 8 8 7 7 7 8 9 10 10 10 10 9 9 9
22 23 24 24 25 26 26 26 25 25 25 23 23 24 24 23 24 25 24 23 22 21 19 18 17 15 15 13 11 12 11 10 9 7 6 6 7 7 7 11 13 11 9 9 9 11 11 10 10 9 8 8 8 8 8 8 7 7 8 8 8 7 6 7 7 6 7 8 6 6 8 10 9 7 7 7 7 6 6 8 9 9 9 9 9 9 9 9
23 23 23 24 25 26 27 27 26 25 25 24 24 25 25 24 24 25 26 24 24 23 21 20 18 16 16 14 13 12 11 11 10 7 6 6 6 6 6 10 12 10 9 9 11 10 8 8 9 9 10 10 10 10 9 8 7 8 8 7 8 7 6 6 6 7 7 7 7 9 8 9 8 6 6 7 7 7 7 7 8 8 8 8 8 9 9 10
24 24 24 23 24 25 27 28 27 26 26 26 26 25 26 26 25 25 26 25 25 24 23 21 20 18 17 15 14 13 12 10 9 8 7 6 6 6 6 8 9 10 9 10 10 9 6 8 8 8 9 10 8 8 8 7 7 8 8 7 7 7 6 5 7 8 7 6 8 10 7 8 9 8 7 8 7 7 8 8 8 8 8 8 8 9 10 10
25 25 24 24 24 25 26 27 27 26 26 27 26 26 26 26 26 26 26 25 25 25 23 22 21 21 19 16 14 14 12 10 9 9 8 7 5 5 5 6 7 8 8 8 8 8 7 7 8 7 8 8 6 7 7 6 7 7 7 7 7 6 5 6 7 8 6 6 9 9 7 9 10 9 9 9 8 8 8 8 8 8 8 9 9 9 10 11
27 26 26 25 25 26 26 26 27 27 28 28 27 27 26 26 26 26 25 24 24 25 25 23 22 21 19 18 16 15 14 13 11 9 9 7 6 6 6 6 7 7 7 6 7 7 7 7 8 8 7 7 7 7 7 6 7 6 6 7 7 6 5 6 7 7 7 7 9 8 8 10 11 9 10 10 9 8 8 7 8 9 9 9 9 10 10 11
27 27 26 26 26 27 26 26 27 27 28 28 28 27 27 27 26 26 25 25 25 24 24 25 22 19 18 18 18 18 16 15 13 11 10 8 7 7 8 8 8 7 6 7 7 6 6 7 8 6 5 5 7 7 7 8 8 6 6 7 6 6 6 6 7 8 8 9 9 8 8 11 11 10 9 9 8 8 7 8 9 10 10 9 9 10 11 11
29 28 27 26 27 27 26 27 27 27 28 29 29 27 27 28 27 26 26 27 27 25 24 25 22 19 18 18 19 19 17 16 16 15 13 11 10 10 9 9 10 8 6 7 7 6 6 7 7 5 3 5 6 6 6 7 6 5 6 7 7 7 8 8 9 9 10 10 10 9 10 12 11 10 9 9 9 8 8 8 9 9 10 10 10 10 11 11
30 30 29 28 28 27 27 27 27 28 28 29 28 27 27 27 26 25 26 27 28 28 26 25 23 21 20 19 19 18 18 18 19 19 17 14 12 12 11 11 11 9 8 8 6 6 6 7 7 5 4 5 6 5 5 4 4 6 8 8 8 8 8 9 10 10 10 10 9 10 12 12 11 10 10 10 10 9 9 9 9 9 10 10 11 10 11 11
Wind_Direction
260 258 255 254 255 256 257 259 259 259 258 257 255 253 251 249 249 249 248 247 250 253 256 254 249 254 286 26 35 42 55 78 100 112 106 104 102 94 98 96 95 98 92 88 90 91 87 88 93 85 80 76 67 66 67 67 63 61 66 69 67 67 70 75 78 76 76 77 81 89 89 85 86 89 90 87 85 91 86 77 90 83 75 104 111 117 127 127
270 266 263 261 260 260 261 262 262 261 260 260 258 256 254 252 250 249 249 246 247 249 249 249 245 242 240 252 16 40 63 105 117 125 123 109 107 104 105 104 103 103 93 87 92 91 86 91 100 91 82 74 66 66 66 66 66 65 66 68 68 70 70 73 78 77 75 80 86 89 89 87 86 88 89 85 83 88 82 75 82 81 84 100 108 117 127 129
279 276 272 268 266 265 264 264 265 264 262 262 260 259 257 254 252 250 250 247 246 246 246 246 242 241 239 234 238 146 132 141 129 134 135 121 115 110 110 113 113 110 92 84 92 89 85 93 101 95 83 73 66 68 66 64 66 65 65 65 65 71 69 70 78 77 78 88 89 87 88 87 87 88 85 85 85 82 82 81 83 92 104 108 111 118 125 131
282 283 281 277 274 270 268 268 268 267 265 264 262 260 258 256 254 251 250 249 247 245 243 243 240 240 239 235 231 210 180 164 157 154 147 136 126 117 117 119 121 115 90 83 87 79 79 90 98 90 79 71 65 66 63 64 66 64 67 66 64 71 68 68 76 76 82 92 90 86 86 84 87 86 84 89 85 71 77 96 97 106 118 119 119 121 124 129
280 283 286 284 281 277 275 271 269 269 267 266 265 263 260 257 255 253 251 249 248 246 242 241 240 238 238 238 228 213 188 167 175 173 165 156 143 132 128 126 127 117 93 89 83 73 78 90 95 83 72 68 68 67 61 67 69 62 62 61 65 71 65 67 78 78 84 87 85 86 83 82 85 82 89 98 89 75 84 105 106 111 121 124 126 124 124 126
279 282 285 285 287 285 281 276 272 270 269 268 267 265 263 259 256 254 252 250 248 247 244 241 239 237 238 235 221 211 195 187 193 190 186 178 165 152 141 139 135 114 98 96 82 77 82 92 98 85 70 62 73 74 63 72 72 59 52 54 67 72 66 71 80 83 88 86 84 85 81 82 80 73 88 104 91 70 74 99 105 112 122 125 128 128 127 128
277 280 283 285 288 287 286 283 278 273 271 269 268 268 267 263 258 254 252 250 247 246 245 242 240 238 238 228 216 211 205 211 213 200 194 189 184 173 157 154 145 115 100 102 83 78 86 97 101 89 76 56 71 79 66 76 76 59 48 54 71 72 73 79 82 87 92 89 83 80 80 83 78 69 80 96 81 55 62 90 101 111 122 124 129 132 133 133
275 278 281 284 286 287 287 286 283 279 275 272 271 270 268 265 261 255 251 249 247 245 244 242 240 238 235 223 215 216 218 220 216 202 194 190 193 184 173 173 168 146 116 120 92 82 96 105 100 88 76 43 76 88 74 76 72 62 51 57 70 70 78 84 83 90 89 82 77 74 77 79 75 72 76 78 61 53 66 86 95 110 121 125 132 136 135 134
276 277 280 283 284 285 286 286 285 283 281 279 276 272 269 266 262 257 252 249 247 245 243 241 240 238 232 223 216 218 223 220 211 201 195 193 197 193 190 193 195 196 195 208 151 91 102 108 100 83 51 26 89 105 90 78 64 71 70 66 74 75 82 86 85 91 87 78 77 73 62 62 68 67 65 54 53 62 73 83 94 113 125 130 133 138 139 137
278 279 280 281 282 284 284 284 284 284 285 284 281 277 271 267 262 259 254 250 246 243 243 241 240 236 230 224 216 218 223 218 210 205 202 201 199 200 206 210 206 209 234 250 221 214 265 82 44 28 28 35 75 117 109 88 60 76 82 72 76 83 83 88 89 90 82 75 80 72 51 52 63 55 48 45 56 72 78 83 101 119 133 137 135 141 145 147
278 279 280 280 281 282 283 284 284 284 287 286 284 280 275 269 264 260 254 249 245 242 241 240 239 236 230 225 217 220 224 218 214 212 211 210 205 208 216 218 214 216 234 253 238 238 267 294 340 11 21 16 35 124 126 88 64 85 87 67 65 76 72 77 87 90 77 62 75 71 48 43 51 41 38 53 66 76 87 95 115 131 142 146 145 147 147 156
276 277 279 279 281 281 281 283 283 285 288 287 283 280 276 272 266 261 254 247 243 241 240 238 237 234 231 229 224 224 226 220 217 217 217 218 217 218 219 220 221 224 233 253 256 248 269 296 332 0 342 353 42 120 164 79 78 91 91 66 55 61 52 60 77 93 82 53 80 77 42 28 36 31 29 53 73 69 87 113 131 148 160 163 164 165 165 182
274 276 277 278 279 280 280 281 282 285 288 287 284 282 277 271 266 261 252 245 242 240 238 237 236 233 231 233 232 229 228 225 221 220 222 224 226 226 225 225 227 230 233 243 257 260 270 284 307 317 301 325 98 139 130 92 91 87 74 61 55 41 18 30 69 88 81 52 104 85 23 7 355 5 26 48 82 67 75 129 150 167 184 185 186 189 198 214
274 274 275 276 277 279 279 280 282 285 286 284 283 282 276 270 266 257 246 241 242 241 239 237 235 233 231 234 235 233 231 229 226 225 225 226 229 232 232 231 230 231 234 239 253 262 264 270 283 288 278 258 188 145 77 50 95 97 41 29 42 33 357 357 71 105 69 29 124 70 351 336 324 333 19 42 90 80 86 152 181 196 207 208 211 210 223 236
272 273 274 274 275 277 278 280 283 285 284 282 281 279 274 268 260 250 241 239 241 241 240 239 236 233 235 239 239 235 232 229 228 229 228 228 229 232 234 233 231 231 233 239 251 257 254 258 265 259 246 240 177 141 3 333 287 282 289 307 322 5 342 341 28 161 223 339 175 11 335 322 323 322 12 17 96 102 125 188 213 219 221 222 233 238 247 257
270 272 273 274 275 275 277 279 281 283 281 280 279 274 269 261 250 244 243 242 241 242 242 240 239 234 234 240 238 235 232 229 230 230 230 229 228 229 233 234 234 235 236 240 249 251 248 251 251 241 233 226 193 184 301 279 269 284 266 264 278 304 326 330 325 252 272 331 280 290 320 321 327 330 215 243 191 150 240 248 233 232 235 235 245 255 259 264
267 270 272 273 274 274 276 277 279 280 278 279 276 269 264 253 243 244 248 249 244 244 246 242 241 240 239 240 236 235 233 230 231 232 231 230 228 230 233 233 235 239 243 244 247 247 242 243 243 243 240 224 222 234 256 243 250 265 264 265 273 282 296 308 314 293 279 301 277 288 306 307 319 324 255 242 218 203 265 268 251 243 247 250 252 257 259 258
266 268 269 271 273 273 274 275 277 277 276 277 271 265 259 247 243 247 250 254 250 247 248 243 240 241 242 240 236 235 234 233 235 235 234 232 230 231 231 232 236 243 248 249 246 243 241 243 241 243 248 241 238 236 240 245 242 246 253 262 272 278 280 286 300 290 268 279 273 278 290 292 307 306 268 255 237 230 255 272 269 258 257 257 255 255 250 249
266 266 267 269 270 272 272 273 276 276 275 275 267 261 256 251 250 249 252 256 251 246 245 241 237 238 242 242 241 241 238 237 239 237 233 232 230 229 231 233 238 241 243 245 244 242 241 243 242 241 243 240 236 233 240 245 235 237 253 265 267 270 277 285 295 283 258 273 274 264 271 281 294 293 273 263 256 252 263 280 279 272 269 262 255 254 246 243
266 266 267 267 268 269 270 272 273 273 273 270 265 259 256 259 256 254 261 260 247 243 246 244 241 245 249 247 245 248 245 241 239 235 231 229 225 225 231 234 237 239 237 237 241 242 239 241 241 238 237 238 239 241 246 246 239 243 256 268 267 270 284 291 295 285 260 268 273 263 266 275 279 284 274 260 261 264 268 279 277 272 272 260 246 246 242 238
266 266 267 267 267 267 268 269 269 269 267 264 262 257 253 259 256 257 266 262 252 249 251 251 245 247 250 247 245 246 246 245 241 236 232 228 220 221 230 232 231 238 239 236 239 244 243 242 241 236 236 240 243 244 248 252 256 257 254 264 272 275 282 285 288 285 266 266 273 265 265 272 273 276 272 258 258 263 260 264 264 259 262 256 241 239 240 237
265 265 266 266 266 266 266 267 265 262 259 257 257 252 250 258 258 257 259 259 260 256 254 255 250 249 251 248 245 242 242 244 243 239 232 226 220 222 229 229 228 236 241 239 240 246 248 246 243 239 238 242 246 245 247 252 255 257 257 263 273 278 284 292 298 293 272 269 276 266 261 271 277 273 268 259 257 261 255 254 260 256 253 249 238 236 237 236
264 265 265 265 265 265 265 264 260 256 254 252 252 249 255 263 263 260 256 256 260 258 255 253 249 250 252 249 242 236 236 238 239 239 231 222 222 224 226 228 232 236 240 238 237 242 247 247 245 243 238 239 246 245 244 252 256 257 257 258 268 277 283 292 299 298 285 278 274 264 263 273 277 274 270 263 262 270 265 260 268 265 255 249 241 237 235 231
264 264 264 265 265 264 265 261 253 251 252 250 248 251 259 266 264 261 257 256 259 258 255 250 248 248 248 246 238 232 235 236 235 236 230 221 222 227 229 230 233 237 241 238 236 241 247 247 247 248 243 237 242 243 242 249 256 260 257 251 260 272 275 282 294 300 298 291 276 265 273 275 269 267 270 268 267 271 268 264 268 265 259 254 246 240 237 235
264 264 264 264 264 264 263 254 248 252 252 245 245 254 263 266 266 261 258 260 259 258 258 253 250 246 243 242 236 231 235 238 235 234 230 224 224 231 236 236 236 240 242 240 238 244 249 248 246 249 248 241 242 244 241 242 253 262 257 247 252 265 273 280 294 304 298 287 273 260 270 277 271 265 267 269 269 265 262 262 263 260 258 254 246 241 239 239
264 264 264 263 263 265 258 246 247 253 249 242 246 257 263 265 265 258 256 262 261 258 259 254 248 243 240 239 235 232 237 242 238 233 232 229 228 233 238 240 243 243 242 241 244 247 250 248 244 245 246 244 246 246 241 239 249 260 254 245 249 259 269 273 282 294 288 281 276 257 255 273 278 271 266 264 266 266 263 262 260 256 255 250 244 240 236 236
264 263 264 262 263 262 251 244 250 251 243 243 251 257 261 263 261 255 256 264 260 253 252 250 245 241 240 237 231 228 236 243 239 233 232 231 233 236 238 241 245 245 244 244 249 249 247 248 246 245 245 244 245 245 240 236 245 254 248 243 248 254 260 262 269 280 279 282 287 265 253 269 277 274 271 263 265 274 271 265 259 249 249 250 245 239 232 232
264 263 263 261 262 258 248 247 251 247 241 246 254 256 259 260 254 250 252 255 252 247 246 248 243 237 240 236 227 227 236 241 238 237 234 231 235 239 240 240 239 242 245 241 246 251 248 245 244 242 242 242 241 239 235 235 244 249 244 245 253 255 258 260 266 276 279 278 280 269 256 266 274 274 280 272 266 275 272 264 257 245 243 248 245 237 231 232
264 263 261 260 260 254 248 249 247 242 243 249 254 255 255 252 247 246 246 245 247 246 244 245 240 236 236 230 227 232 239 241 240 238 234 232 236 239 241 241 237 241 247 245 245 250 250 246 243 241 242 242 240 236 231 234 244 246 242 248 257 260 263 266 269 273 274 268 267 263 251 258 273 273 276 274 270 274 270 265 261 249 243 245 242 236 232 233
265 262 260 259 256 251 250 249 244 241 245 249 252 252 248 244 242 242 241 240 243 245 242 240 238 235 229 226 233 237 236 241 243 237 233 233 237 240 242 242 240 242 249 253 250 249 252 251 248 246 243 241 240 237 233 235 242 247 247 248 256 264 267 271 274 270 267 266 267 262 250 253 271 274 267 265 270 271 266 268 267 252 242 240 237 234 231 231
266 263 260 257 253 250 249 245 241 242 246 248 249 245 239 238 237 232 234 239 241 243 243 240 237 234 228 227 234 236 234 240 244 236 235 237 238 241 241 241 243 246 252 255 253 254 257 253 250 248 244 240 241 241 240 241 243 244 246 246 253 264 266 268 273 267 262 268 271 267 258 254 263 270 269 267 272 275 270 270 268 250 239 235 231 231 229 229
265 263 261 255 251 249 246 243 243 244 245 244 243 237 231 234 235 229 233 241 239 236 234 233 235 234 233 232 233 234 233 239 243 236 235 237 237 238 238 237 238 244 251 250 249 255 255 250 250 251 245 238 237 242 244 245 241 236 239 242 247 257 261 263 265 262 261 266 269 266 259 258 262 269 273 272 272 274 272 273 272 252 237 231 228 228 228 228
265 263 259 254 249 247 245 244 244 242 241 239 235 231 226 229 232 229 231 233 230 232 231 230 238 236 232 234 237 234 231 237 240 238 237 236 237 241 243 240 234 237 246 244 245 251 254 257 254 249 247 236 228 234 238 237 233 230 232 236 240 245 253 259 262 267 268 268 270 265 259 266 273 276 277 273 271 270 267 267 267 250 231 225 226 226 228 231
266 261 256 251 248 247 245 244 240 237 236 233 229 227 224 227 231 229 229 230 230 234 234 232 242 245 235 234 238 234 231 238 236 232 237 237 237 240 241 241 236 236 241 242 244 242 246 257 247 237 242 234 225 227 225 223 228 230 230 233 238 238 243 255 258 262 268 271 271 267 263 266 272 278 280 276 278 279 271 263 258 245 227 221 223 222 226 232
265 259 254 250 247 245 244 241 236 231 230 228 225 224 224 226 229 227 228 231 231 234 239 238 237 243 243 239 240 234 230 238 235 228 231 231 232 235 235 236 234 233 234 236 242 239 239 248 243 237 236 226 224 227 220 218 230 236 232 233 241 240 241 255 258 257 264 270 268 264 265 267 269 277 284 284 286 291 281 261 241 227 217 213 216 218 224 231
263 258 253 248 246 244 241 236 231 227 225 223 223 225 226 226 225 224 226 228 227 229 237 241 232 230 236 235 238 239 234 237 237 233 233 231 231 233 235 236 230 225 224 225 233 234 232 243 245 239 231 221 218 220 217 218 226 233 232 233 241 241 238 251 263 269 272 271 270 268 269 275 280 283 287 294 301 302 293 267 232 214 209 210 216 220 225 231
260 257 252 247 244 242 237 231 227 225 224 222 223 226 227 225 222 221 226 226 224 224 225 228 228 225 227 229 234 237 237 240 240 236 236 238 236 231 234 239 229 219 217 217 225 225 222 237 241 223 220 225 218 212 219 223 219 221 228 232 238 244 247 250 261 278 280 271 273 273 270 274 278 279 285 299 303 301 295 276 246 222 214 217 223 225 228 231
258 255 250 245 242 239 233 227 224 223 224 224 225 227 225 224 222 221 224 225 223 222 218 218 223 223 223 230 233 233 232 237 240 235 232 237 239 228 224 233 226 214 211 208 217 223 217 227 233 212 207 222 220 213 229 237 229 223 226 232 235 239 250 252 254 267 274 273 277 280 276 270 262 264 279 286 280 282 286 276 256 237 226 226 227 226 231 237
255 251 245 242 242 237 228 223 222 223 225 225 225 226 224 223 224 222 222 222 220 218 218 219 222 224 227 230 231 232 231 230 233 233 226 227 235 230 223 228 225 213 206 203 209 217 209 208 219 213 208 219 224 221 230 235 233 226 224 234 240 236 241 247 252 260 264 269 276 283 284 274 264 264 272 277 271 267 271 267 255 244 233 228 226 228 235 240
252 246 241 244 244 233 223 220 221 223 226 226 224 225 224 223 224 223 220 220 219 217 218 219 219 223 229 229 226 228 230 226 223 224 224 223 232 239 230 221 219 213 207 204 208 214 209 204 211 217 221 230 231 229 224 218 217 218 220 229 237 239 245 252 259 262 260 262 266 275 280 275 272 271 271 278 276 264 258 256 250 244 236 232 230 231 235 238
250 243 241 244 238 225 219 220 223 224 226 228 226 224 224 222 222 223 222 220 220 220 219 217 218 220 223 225 225 225 228 227 219 217 224 225 229 240 232 215 207 206 207 209 211 210 207 205 211 224 232 236 236 231 219 211 211 211 217 227 233 237 243 252 264 264 260 261 259 264 274 274 276 279 277 280 277 263 253 249 246 242 236 235 235 235 238 240
246 240 238 237 228 222 221 224 226 226 226 227 225 222 222 221 220 222 222 219 219 220 219 218 219 218 217 220 222 221 222 223 217 214 219 221 222 232 234 215 197 191 198 209 213 209 205 206 215 229 232 233 242 238 219 215 217 213 222 232 233 238 241 242 254 259 258 264 266 267 275 276 278 284 284 284 279 267 256 248 243 240 235 234 236 239 243 245
243 240 239 236 230 225 225 226 227 227 227 227 225 222 222 220 219 220 219 218 218 219 220 219 218 217 217 217 215 215 219 220 213 210 216 225 228 232 231 209 192 190 198 208 213 209 207 209 216 230 240 241 246 246 227 222 220 218 234 241 234 241 248 244 247 251 251 256 265 276 282 281 287 295 297 294 287 276 265 252 239 235 237 238 237 240 245 246
244 243 240 237 231 226 225 225 225 226 227 227 224 223 222 220 219 218 217 217 217 216 217 218 216 216 217 216 212 213 216 215 212 212 217 227 232 236 231 207 193 193 202 206 206 205 207 210 212 219 237 241 244 253 247 240 236 233 241 249 245 241 250 255 253 256 257 254 255 269 278 283 291 302 306 303 296 283 265 251 241 237 238 239 238 241 247 248
244 241 238 235 230 225 225 224 223 224 226 225 224 222 221 220 220 217 216 217 217 215 215 218 217 216 216 215 216 216 212 208 212 221 225 225 233 239 229 208 197 196 206 205 196 197 204 210 209 209 216 225 232 240 241 240 245 246 245 254 256 246 243 248 250 256 258 255 255 263 273 285 295 304 308 302 294 285 265 252 250 246 240 239 241 244 250 252
241 238 237 235 230 225 225 225 225 224 223 222 224 222 219 219 221 218 215 217 218 216 216 217 217 216 216 214 216 216 210 204 208 224 229 221 230 237 212 196 196 199 201 191 183 188 202 211 210 210 217 222 225 232 236 235 240 250 254 259 259 248 241 246 254 257 251 252 265 266 268 285 294 299 303 296 288 282 271 259 256 252 244 244 246 248 253 256
237 237 235 233 230 227 225 225 224 224 222 220 221 221 218 217 219 219 216 216 216 215 215 216 213 213 213 210 210 213 210 206 208 217 224 216 218 224 199 180 186 191 184 177 182 190 201 212 211 212 222 227 229 239 246 242 237 244 252 257 258 251 246 250 256 256 251 258 274 272 266 277 286 288 289 290 289 281 270 261 257 254 249 248 250 252 254 256
234 236 234 231 229 226 224 224 223 223 222 221 219 219 218 216 215 217 216 216 216 213 213 215 212 210 211 209 208 210 209 209 209 209 215 214 209 215 205 184 184 186 178 182 198 201 203 216 218 221 238 246 249 253 251 242 239 244 248 254 258 258 254 253 254 256 253 257 268 270 266 270 280 283 279 282 287 279 269 263 257 253 253 252 253 255 255 254
233 234 234 231 228 226 226 226 225 222 221 221 220 219 218 215 215 216 215 215 216 214 212 213 211 208 208 209 209 208 206 205 208 210 211 212 208 205 200 191 189 188 183 193 211 210 211 225 226 227 246 258 256 256 253 244 241 247 257 260 258 256 255 256 259 260 262 264 267 270 268 270 277 280 276 280 285 282 275 266 256 254 255 255 254 256 255 253
231 231 232 231 228 227 227 225 223 221 220 220 220 220 218 216 216 217 215 212 214 215 211 210 210 207 206 208 206 206 206 204 209 214 209 207 213 207 200 197 197 201 202 203 213 219 217 225 231 230 238 251 252 253 252 248 241 241 259 268 268 268 270 270 270 269 273 278 278 277 277 278 282 283 282 282 281 277 273 264 259 260 259 256 256 256 253 249
231 231 230 229 227 225 224 224 222 220 220 219 219 219 218 216 215 216 215 213 212 213 211 208 208 209 211 212 209 209 212 212 215 219 215 211 215 212 207 203 199 207 219 213 217 230 220 220 233 232 216 235 246 242 242 248 245 246 262 273 276 276 273 272 275 274 274 278 282 284 282 280 280 282 282 280 274 271 268 262 260 260 258 257 256 253 250 246
231 231 230 228 226 223 222 223 221 219 220 218 217 219 218 217 216 214 214 215 213 213 213 211 210 210 212 215 213 213 217 219 220 224 223 220 221 217 215 213 207 207 212 210 216 227 216 213 223 220 211 234 245 237 234 248 256 256 258 261 266 272 273 275 280 280 277 276 276 277 277 276 276 274 273 273 272 269 262 256 254 253 252 254 255 253 250 246